Stations météo

réclame
Mon MeteoGroup
Rostherne No 2, Grande-Bretagne (3351): Température de l'air & dewpoint: 01.12.2019 17:00:00 - 07.12.2019 17:00:00 (GMT)Rostherne No 2, Grande-Bretagne (3351): Vitesse du vent & gusts: 01.12.2019 17:00:00 - 07.12.2019 17:00:00 (GMT)Rostherne No 2, Grande-Bretagne (3351): Direction du vent: 01.12.2019 17:00:00 - 07.12.2019 17:00:00 (GMT)Rostherne No 2, Grande-Bretagne (3351): reduced air pressure: 01.12.2019 17:00:00 - 07.12.2019 17:00:00 (GMT)Rostherne No 2, Grande-Bretagne (3351): visibility: 01.12.2019 17:00:00 - 07.12.2019 17:00:00 (GMT)Rostherne No 2, Grande-Bretagne (3351): Ensoleillement: 01.12.2019 17:00:00 - 07.12.2019 17:00:00 (GMT)Rostherne No 2, Grande-Bretagne (3351): Quantités de précipitations: 01.12.2019 17:00:00 - 07.12.2019 17:00:00 (GMT)
Date & Time tt [°C] td [°C] ff [km/h] ff [knt] fx [km/h] fx [knt] dd ppp [hPa] vv [km] sd [min] rr [mm]
07.12.2019 17:00:00 9,8 7,4 16 9 - - S 1006,8 50 0 0,0
07.12.2019 16:00:00 10,0 7,2 11 6 - - SSW 1007,4 24 0 0,0
07.12.2019 15:00:00 10,0 6,9 9 5 - - SSW 1007,9 30 0 0,0
07.12.2019 14:00:00 10,4 6,8 8 4 - - SW 1008,7 35 0 0,0
07.12.2019 13:00:00 10,2 6,4 9 5 - - SSW 1009,6 30 18 0,0
07.12.2019 12:00:00 9,2 6,0 11 6 - - SSW 1010,3 40 12 0,0
07.12.2019 11:00:00 9,2 6,1 13 7 - - WSW 1011,2 45 0 0,0
07.12.2019 10:00:00 8,5 6,6 8 4 - - SW 1011,4 35 0 0,0
07.12.2019 09:00:00 8,4 6,2 15 8 - - SW 1011,1 35 0 0,0
07.12.2019 08:00:00 8,8 7,0 16 9 - - W 1010,8 20 0 0,0
07.12.2019 07:00:00 8,5 7,2 18 10 - - W 1010,6 19 0 0,0
07.12.2019 06:00:00 8,6 6,7 21 11 - - W 1010,5 19 0 0,0
07.12.2019 05:00:00 8,5 7,0 18 10 - - W 1009,8 20 0 0,0
07.12.2019 04:00:00 8,7 7,0 22 12 - - W 1008,9 19 0 0,0
07.12.2019 03:00:00 8,8 6,9 18 10 - - W 1009,0 22 0 0,0
07.12.2019 02:00:00 8,8 6,8 21 11 - - W 1008,2 24 0 0,0
07.12.2019 01:00:00 8,6 7,3 22 12 - - W 1007,8 9 0 0,0
07.12.2019 00:00:00 8,8 7,3 21 11 - - W 1006,8 17 - 0,2
06.12.2019 23:00:00 8,7 7,3 18 10 - - W 1006,2 19 0 0,0
06.12.2019 22:00:00 9,1 7,3 21 11 - - W 1005,6 21 0 0,0
06.12.2019 21:00:00 9,2 7,3 22 12 - - W 1005,0 22 0 0,0
06.12.2019 20:00:00 9,2 7,6 22 12 - - WNW 1004,3 20 0 0,0
06.12.2019 19:00:00 9,1 7,5 31 17 46 25 WNW 1003,0 23 0 0,0
06.12.2019 18:00:00 9,1 7,7 26 14 46 25 WNW 1001,9 19 0 0,0
06.12.2019 17:00:00 8,8 7,7 22 12 - - WNW 1000,5 20 0 0,0
06.12.2019 16:00:00 8,7 8,1 26 14 - - W 999,0 6 0 0,4
06.12.2019 15:00:00 8,2 7,1 21 11 - - W 998,2 19 0 0,8
06.12.2019 14:00:00 10,1 8,4 22 12 - - W 997,6 22 0 1,8
06.12.2019 13:00:00 10,5 8,9 21 11 - - W 997,6 1,7 30 3,0
06.12.2019 12:00:00 12,5 9,6 16 9 - - W 997,7 50 6 0,0
06.12.2019 11:00:00 12,2 9,5 13 7 - - WSW 998,6 50 0 0,0
06.12.2019 10:00:00 11,9 9,8 16 9 - - SW 999,0 50 0 0,0
06.12.2019 09:00:00 11,4 10,2 13 7 - - SSW 999,3 50 0 0,0
06.12.2019 08:00:00 11,3 10,3 15 8 - - SW 999,5 50 0 0,0
06.12.2019 07:00:00 11,2 10,2 15 8 - - SSW 999,9 50 0 0,0
06.12.2019 06:00:00 11,1 10,4 15 8 - - SSW 1000,4 8 0 0,0
06.12.2019 05:00:00 11,2 10,2 16 9 - - SSW 1001,3 35 0 0,4
06.12.2019 04:00:00 11,4 9,7 11 6 - - SSW 1001,9 50 0 0,0
06.12.2019 03:00:00 11,6 9,8 13 7 - - SSW 1002,7 50 0 0,0
06.12.2019 02:00:00 12,0 9,8 18 10 - - WSW 1002,7 45 0 0,0
06.12.2019 01:00:00 11,9 9,7 21 11 - - WSW 1003,3 35 0 0,0
06.12.2019 00:00:00 12,4 9,6 24 13 48 26 WSW 1004,4 50 - 0,0
05.12.2019 23:00:00 12,4 9,4 29 16 46 25 WSW 1004,8 50 0 0,0
05.12.2019 22:00:00 12,5 9,3 28 15 52 28 WSW 1005,2 30 0 0,0
05.12.2019 21:00:00 12,4 9,1 21 11 - - WSW 1005,3 30 0 0,0
05.12.2019 20:00:00 11,1 8,1 16 9 - - SW 1005,6 50 0 0,0
05.12.2019 19:00:00 10,4 7,9 15 8 - - SSW 1006,1 50 0 0,0
05.12.2019 18:00:00 10,0 7,6 18 10 - - SSW 1007,1 50 0 0,0
05.12.2019 17:00:00 9,6 6,9 18 10 - - SSW 1007,5 50 0 0,0
05.12.2019 16:00:00 9,7 6,5 21 11 - - SSW 1008,4 50 0 0,0
05.12.2019 15:00:00 9,2 6,4 22 12 - - SSW 1009,4 25 0 0,2
05.12.2019 14:00:00 8,5 6,4 16 9 - - SSW 1010,8 23 0 0,0
05.12.2019 13:00:00 8,8 6,0 13 7 - - SSW 1012,2 40 0 0,0
05.12.2019 12:00:00 7,5 5,2 15 8 - - S 1013,7 23 0 0,0
05.12.2019 11:00:00 7,0 4,9 13 7 - - S 1015,4 25 0 0,0
05.12.2019 10:00:00 5,9 4,6 11 6 - - SSW 1016,0 27 0 0,0
05.12.2019 09:00:00 4,7 3,6 13 7 - - S 1016,4 19 0 0,0
05.12.2019 08:00:00 4,7 3,5 11 6 - - SSW 1016,6 20 0 0,0
05.12.2019 07:00:00 4,6 3,5 9 5 - - SSW 1017,1 24 0 0,0
05.12.2019 06:00:00 4,0 3,0 9 5 - - SSW 1017,4 27 0 0,0
05.12.2019 05:00:00 5,1 3,6 13 7 - - SW 1017,3 26 0 0,0
05.12.2019 04:00:00 4,8 4,2 13 7 - - SW 1017,6 18 0 0,0
05.12.2019 03:00:00 4,7 4,3 9 5 - - SSW 1018,3 11 0 0,0
05.12.2019 02:00:00 5,0 4,5 9 5 - - SSW 1018,2 11 0 0,0
05.12.2019 01:00:00 5,1 4,3 5 3 - - SSW 1018,5 12 0 0,0
05.12.2019 00:00:00 5,6 4,7 9 5 48 26 SSW 1018,8 17 - 0,0
04.12.2019 23:00:00 4,9 4,0 5 3 - - SSW 1018,7 12 0 0,0
04.12.2019 22:00:00 5,0 4,3 9 5 - - SSW 1018,5 11 0 0,0
04.12.2019 21:00:00 5,4 3,6 11 6 - - SSW 1018,4 15 0 0,0
04.12.2019 20:00:00 5,9 3,7 11 6 - - SSW 1018,3 19 0 0,0
04.12.2019 19:00:00 6,0 3,7 11 6 - - S 1018,0 17 0 0,0
04.12.2019 18:00:00 5,7 3,6 11 6 - - S 1018,2 15 0 0,0
04.12.2019 17:00:00 6,1 3,7 11 6 - - S 1017,9 17 0 0,0
04.12.2019 16:00:00 6,7 3,8 11 6 - - S 1017,7 22 24 0,0
04.12.2019 15:00:00 6,9 3,7 13 7 - - S 1017,7 21 48 0,0
04.12.2019 14:00:00 7,1 3,5 15 8 - - S 1017,5 21 60 0,0
04.12.2019 13:00:00 6,9 3,2 13 7 - - S 1017,8 23 60 0,0
04.12.2019 12:00:00 6,7 3,1 13 7 - - S 1018,2 16 60 0,0
04.12.2019 11:00:00 5,7 2,6 11 6 - - S 1019,0 26 60 0,0
04.12.2019 10:00:00 4,4 2,0 11 6 - - S 1019,2 11 24 0,0
04.12.2019 09:00:00 4,0 1,9 11 6 - - S 1019,1 19 0 0,0
04.12.2019 08:00:00 3,3 1,7 11 6 - - S 1018,6 19 0 0,0
04.12.2019 07:00:00 1,8 0,6 9 5 - - SSE 1018,6 10 0 0,0
04.12.2019 06:00:00 3,3 2,0 11 6 - - S 1018,8 16 0 0,0
04.12.2019 05:00:00 3,0 1,8 8 4 - - S 1019,1 14 0 0,0
04.12.2019 04:00:00 3,5 2,1 9 5 - - S 1019,2 16 0 0,0
04.12.2019 03:00:00 3,2 2,3 9 5 - - S 1019,6 17 0 0,0
04.12.2019 02:00:00 3,9 2,4 9 5 - - S 1020,2 20 0 0,0
04.12.2019 01:00:00 4,5 2,8 5 3 - - S 1020,6 29 0 0,0
04.12.2019 00:00:00 3,8 2,8 8 4 - - SSE 1021,1 18 - 0,0
03.12.2019 23:00:00 3,7 2,2 8 4 - - SSE 1021,4 19 0 0,0
03.12.2019 22:00:00 4,2 3,8 9 5 - - S 1021,7 22 0 0,0
03.12.2019 21:00:00 0,7 0,4 5 3 - - SE 1021,9 1,2 0 0,0
03.12.2019 20:00:00 2,6 2,5 8 4 - - SE 1022,3 12 0 0,0
03.12.2019 19:00:00 2,1 1,9 8 4 - - SSE 1022,7 7 0 0,0
03.12.2019 18:00:00 1,6 1,1 5 3 - - SSE 1023,3 6 0 0,0
03.12.2019 17:00:00 2,9 2,1 5 3 - - SE 1023,3 10 0 0,0
03.12.2019 16:00:00 4,7 2,3 4 2 - - S 1023,7 15 24 0,0
03.12.2019 15:00:00 7,8 4,1 4 2 - - S 1023,4 30 60 0,0
03.12.2019 14:00:00 8,9 4,3 5 3 - - WSW 1023,8 35 60 0,0
03.12.2019 13:00:00 8,5 4,3 4 2 - - S 1024,6 30 60 0,0
03.12.2019 12:00:00 6,7 3,7 8 4 - - S 1025,8 25 60 0,0
03.12.2019 11:00:00 6,4 3,8 5 3 - - S 1026,8 21 60 0,0
03.12.2019 10:00:00 4,0 3,4 5 3 - - SSE 1027,3 13 30 0,2
03.12.2019 09:00:00 2,6 2,6 5 3 - - S 1027,4 14 0 0,0
03.12.2019 08:00:00 -0,7 -1,0 5 3 - - SE 1027,4 6 0 0,0
03.12.2019 07:00:00 -0,1 -0,4 4 2 - - SSE 1027,5 6 0 0,0
03.12.2019 06:00:00 0,8 0,3 5 3 - - ESE 1027,7 13 0 0,0
03.12.2019 05:00:00 1,6 0,7 5 3 - - SSE 1028,0 16 0 0,0
03.12.2019 04:00:00 3,6 2,6 8 4 - - SSW 1028,3 23 0 0,0
03.12.2019 03:00:00 4,7 3,4 8 4 - - S 1029,0 28 0 0,0
03.12.2019 02:00:00 4,8 3,4 8 4 - - SSW 1029,4 20 0 0,0
03.12.2019 01:00:00 5,3 3,5 8 4 - - SW 1029,5 30 0 0,0
03.12.2019 00:00:00 5,3 3,4 9 5 - - SW 1030,0 35 - 0,0
02.12.2019 23:00:00 5,3 3,7 9 5 - - SW 1030,3 30 0 0,0
02.12.2019 22:00:00 5,6 3,9 5 3 - - SSW 1030,4 22 0 0,0
02.12.2019 21:00:00 5,6 4,0 11 6 - - W 1030,7 26 0 0,0
02.12.2019 20:00:00 5,7 4,3 9 5 - - SW 1030,8 26 0 0,0
02.12.2019 19:00:00 4,2 3,9 4 2 - - SSW 1030,8 15 0 0,0
02.12.2019 18:00:00 4,2 3,9 5 3 - - SSW 1030,8 18 0 0,0
02.12.2019 17:00:00 3,0 2,5 4 2 - - SSE 1030,9 10 0 0,0
02.12.2019 16:00:00 3,2 2,7 8 4 - - SE 1031,1 11 0 0,0
02.12.2019 15:00:00 3,7 2,9 4 2 - - SSE 1030,9 12 0 0,0
02.12.2019 14:00:00 4,4 2,9 2 1 - - SSE 1031,3 13 12 0,0
02.12.2019 13:00:00 3,3 2,9 2 1 - - S 1031,7 12 0 0,0
02.12.2019 12:00:00 1,7 1,5 2 1 - - S 1031,9 10 0 0,0
02.12.2019 11:00:00 0,5 0,4 2 1 - - S 1032,0 7 6 0,0
02.12.2019 10:00:00 -0,7 -0,9 2 1 - - ESE 1032,0 8 0 0,0
02.12.2019 09:00:00 -2,0 -2,2 4 2 - - ESE 1031,8 7 0 0,0
02.12.2019 08:00:00 -3,2 -3,5 2 1 - - ESE 1031,8 7 0 0,0
02.12.2019 07:00:00 -3,0 -3,3 2 1 - - E 1031,5 7 0 0,0
02.12.2019 06:00:00 -3,3 -3,6 4 2 - - SE 1031,5 7 0 0,0
02.12.2019 05:00:00 -4,6 -5,0 4 2 - - SSE 1031,6 7 0 0,0
02.12.2019 04:00:00 -5,0 -5,4 5 3 - - SE 1031,5 8 0 0,0
02.12.2019 03:00:00 -5,0 -5,4 5 3 - - SE 1031,6 7 0 0,0
02.12.2019 02:00:00 -4,7 -5,1 2 1 - - SSW 1031,6 8 0 0,0
02.12.2019 01:00:00 -4,4 -4,8 5 3 - - SSE 1031,2 8 0 0,0
02.12.2019 00:00:00 -4,0 -4,4 2 1 - - SE 1031,4 5 - 0,0
01.12.2019 23:00:00 -3,3 -3,6 5 3 - - NNW 1030,9 6 0 0,0
01.12.2019 22:00:00 -2,9 -3,3 5 3 - - NW 1030,4 6 0 0,0
01.12.2019 21:00:00 -2,6 -3,0 2 1 - - W 1030,2 2,9 0 0,0
01.12.2019 20:00:00 -2,1 -2,5 2 1 - - N 1029,8 7 0 0,0
01.12.2019 19:00:00 -1,5 -2,1 2 1 - - E 1029,3 12 0 0,0
01.12.2019 18:00:00 -0,5 -1,2 5 3 - - NW 1029,0 21 0 0,0
01.12.2019 17:00:00 -0,2 -1,5 8 4 - - NW 1028,5 15 0 0,0

tt = Température de l'air
td = dewpoint
ff = Vitesse du vent
fx = gusts
dd = Direction du vent
ppp = reduced air pressure
vv = visibility
sd = Ensoleillement
rr = Quantités de précipitations

stations d'obs. à proximité